THY7UJ LTCI-LTFM

Flight info

Callsign THY7UJ
Flight time 1h 52m
Altitude 36000
Route BEYAZ UG81 EZS UG8 GEM UT32 BUK UA4 ERSEN
Aircraft A320/M-SDE3FGHIRWY/LB1

Departure

Time 2026-05-04 17:45
Airport Van Ferit Melen Airport (LTCI)

Arrival

Time 2026-05-04 19:37
Airport İstanbul Airport (LTFM)
Time Latitude Longitude Altitude Speed Heading
2026-05-04 17:23 38.46930 43.33717 5478 ft 0 kts 128°
2026-05-04 17:26 38.46930 43.33716 5478 ft 0 kts 128°
2026-05-04 17:34 38.46937 43.33705 5478 ft 2 kts 128°
2026-05-04 17:34 38.46947 43.33688 5479 ft 2 kts 128°
2026-05-04 17:35 38.46947 43.33637 5480 ft 1 kts 41°
2026-05-04 17:35 38.46945 43.33634 5480 ft 0 kts 39°
2026-05-04 17:39 38.46972 43.33662 5480 ft 4 kts 39°
2026-05-04 17:39 38.46999 43.33689 5481 ft 8 kts 38°
2026-05-04 17:39 38.47053 43.33743 5481 ft 10 kts 37°
2026-05-04 17:40 38.47110 43.33783 5481 ft 8 kts 353°
2026-05-04 17:40 38.47143 43.33745 5483 ft 4 kts 308°
2026-05-04 17:40 38.47146 43.33741 5486 ft 0 kts 308°
2026-05-04 17:40 38.47149 43.33735 5485 ft 4 kts 308°
2026-05-04 17:41 38.47173 43.33696 5487 ft 5 kts 308°
2026-05-04 17:41 38.47202 43.33652 5489 ft 9 kts 314°
2026-05-04 17:41 38.47281 43.33680 5483 ft 16 kts 37°
2026-05-04 17:41 38.47376 43.33773 5484 ft 18 kts 37°
2026-05-04 17:42 38.47476 43.33871 5483 ft 18 kts 38°
2026-05-04 17:42 38.47575 43.33969 5482 ft 17 kts 38°
2026-05-04 17:42 38.47663 43.34056 5488 ft 16 kts 38°
2026-05-04 17:42 38.47752 43.34112 5484 ft 10 kts
2026-05-04 17:43 38.47806 43.34133 5487 ft 7 kts 65°
2026-05-04 17:43 38.47777 43.34159 5485 ft 6 kts 180°
2026-05-04 17:43 38.47741 43.34133 5486 ft 7 kts 220°
2026-05-04 17:43 38.47723 43.34115 5484 ft 0 kts 217°
2026-05-04 17:44 38.47716 43.34108 5485 ft 7 kts 218°
2026-05-04 17:44 38.47478 43.33872 5481 ft 80 kts 218°
2026-05-04 17:44 38.46879 43.33282 5485 ft 135 kts 218°
2026-05-04 17:44 38.46023 43.32435 5549 ft 174 kts 218°
2026-05-04 17:45 38.45067 43.31483 6243 ft 174 kts 224°
2026-05-04 17:45 38.44618 43.30110 6922 ft 177 kts 276°
2026-05-04 17:45 38.45243 43.28743 7489 ft 190 kts 319°
2026-05-04 17:45 38.46342 43.27708 7988 ft 202 kts 314°
2026-05-04 17:46 38.47120 43.26132 8259 ft 224 kts 283°
2026-05-04 17:46 38.47196 43.24070 8566 ft 244 kts 262°
2026-05-04 17:46 38.46945 43.21853 8920 ft 263 kts 261°
2026-05-04 17:46 38.46756 43.19434 9249 ft 284 kts 268°
2026-05-04 17:47 38.46841 43.16872 9862 ft 292 kts 274°
2026-05-04 17:47 38.47078 43.14236 10298 ft 310 kts 276°
2026-05-04 17:47 38.47385 43.11411 10488 ft 333 kts 276°
2026-05-04 17:47 38.47721 43.08382 10641 ft 355 kts 276°
2026-05-04 17:48 38.48060 43.05214 11112 ft 364 kts 276°
2026-05-04 17:48 38.48390 43.01995 11748 ft 367 kts 275°
2026-05-04 17:48 38.48702 42.98750 12426 ft 370 kts 274°
2026-05-04 17:48 38.49002 42.95485 13076 ft 372 kts 274°
2026-05-04 17:49 38.49296 42.92192 13703 ft 374 kts 274°
2026-05-04 17:49 38.49591 42.88887 14290 ft 377 kts 274°
2026-05-04 17:49 38.49886 42.85594 14828 ft 380 kts 273°
2026-05-04 17:49 38.50185 42.82235 15399 ft 382 kts 274°
2026-05-04 17:50 38.50489 42.78852 15977 ft 385 kts 273°
2026-05-04 17:50 38.50773 42.75442 16535 ft 386 kts 272°
2026-05-04 17:50 38.51026 42.72019 17074 ft 388 kts 272°
2026-05-04 17:50 38.51263 42.68569 17620 ft 391 kts 271°
2026-05-04 17:51 38.51490 42.65097 18182 ft 393 kts 271°
2026-05-04 17:51 38.51717 42.61611 18735 ft 395 kts 271°
2026-05-04 17:51 38.51949 42.58100 19251 ft 398 kts 271°
2026-05-04 17:51 38.52188 42.54557 19750 ft 401 kts 271°
2026-05-04 17:52 38.52430 42.50996 20249 ft 404 kts 271°
2026-05-04 17:52 38.52675 42.47414 20717 ft 406 kts 271°
2026-05-04 17:52 38.52924 42.43810 21173 ft 409 kts 271°
2026-05-04 17:52 38.53171 42.40186 21611 ft 411 kts 270°
2026-05-04 17:53 38.53414 42.36541 22033 ft 413 kts 270°
2026-05-04 17:53 38.53659 42.32869 22440 ft 415 kts 270°
2026-05-04 17:53 38.53906 42.29183 22845 ft 418 kts 270°
2026-05-04 17:53 38.54152 42.25478 23247 ft 420 kts 270°
2026-05-04 17:54 38.54397 42.21754 23625 ft 422 kts 270°
2026-05-04 17:54 38.54644 42.18008 23986 ft 424 kts 270°
2026-05-04 17:54 38.54892 42.14243 24367 ft 426 kts 270°
2026-05-04 17:54 38.55141 42.10461 24727 ft 428 kts 270°
2026-05-04 17:55 38.55386 42.06706 25090 ft 430 kts 270°
2026-05-04 17:55 38.55633 42.02891 25430 ft 432 kts 270°
2026-05-04 17:55 38.55879 41.99059 25755 ft 434 kts 270°
2026-05-04 17:55 38.56122 41.95207 26084 ft 436 kts 270°
2026-05-04 17:56 38.56364 41.91347 26501 ft 435 kts 270°
2026-05-04 17:56 38.56608 41.87498 26992 ft 434 kts 270°
2026-05-04 17:56 38.56851 41.83664 27465 ft 432 kts 270°
2026-05-04 17:56 38.57090 41.79842 27957 ft 431 kts 270°
2026-05-04 17:57 38.57328 41.76031 28439 ft 430 kts 270°
2026-05-04 17:57 38.57565 41.72232 28896 ft 428 kts 270°
2026-05-04 17:57 38.57799 41.68444 29368 ft 427 kts 270°
2026-05-04 17:57 38.58030 41.64669 29824 ft 426 kts 270°
2026-05-04 17:58 38.58259 41.60904 30280 ft 424 kts 270°
2026-05-04 17:58 38.58482 41.57148 30708 ft 424 kts 270°
2026-05-04 17:58 38.58704 41.53396 31140 ft 423 kts 270°
2026-05-04 17:58 38.58928 41.49646 31549 ft 423 kts 270°
2026-05-04 17:59 38.59149 41.45898 31946 ft 423 kts 270°
2026-05-04 17:59 38.59369 41.42148 32294 ft 423 kts 270°
2026-05-04 17:59 38.59823 41.34647 33082 ft 423 kts 270°
2026-05-04 18:00 38.59983 41.32159 33342 ft 423 kts 270°
2026-05-04 18:00 38.60311 41.27150 33864 ft 423 kts 271°
2026-05-04 18:00 38.60557 41.23403 34208 ft 423 kts 270°
2026-05-04 18:00 38.60801 41.19648 34545 ft 423 kts 271°
2026-05-04 18:01 38.61039 41.15900 34876 ft 423 kts 271°
2026-05-04 18:01 38.61271 41.12149 35181 ft 423 kts 271°
2026-05-04 18:01 38.61499 41.08395 35469 ft 424 kts 271°
2026-05-04 18:02 38.61947 41.00923 35902 ft 426 kts 271°
2026-05-04 18:02 38.62177 40.97070 35926 ft 433 kts 271°
2026-05-04 18:02 38.62638 40.89355 35922 ft 441 kts 271°
2026-05-04 18:03 38.63033 40.82795 35926 ft 443 kts 271°
2026-05-04 18:03 38.63546 40.73656 35924 ft 443 kts 270°
2026-05-04 18:04 38.63962 40.65795 35920 ft 443 kts 271°
2026-05-04 18:05 38.64500 40.55326 35923 ft 443 kts 270°
2026-05-04 18:05 38.64889 40.47469 35929 ft 443 kts 271°
2026-05-04 18:06 38.65481 40.35669 35930 ft 443 kts 271°
2026-05-04 18:06 38.65869 40.27800 35931 ft 443 kts 270°
2026-05-04 18:07 38.66237 40.20221 35933 ft 444 kts 271°
2026-05-04 18:07 38.66629 40.12346 35931 ft 443 kts 271°
2026-05-04 18:08 38.67015 40.04465 35921 ft 443 kts 271°
2026-05-04 18:08 38.67406 39.96591 35918 ft 444 kts 271°
2026-05-04 18:09 38.68148 39.80879 35899 ft 444 kts 271°
2026-05-04 18:10 38.68512 39.72973 35900 ft 445 kts 270°
2026-05-04 18:10 38.68864 39.65065 35898 ft 445 kts 270°
2026-05-04 18:11 38.69219 39.57155 35895 ft 445 kts 271°
2026-05-04 18:11 38.69574 39.49240 35893 ft 446 kts 271°
2026-05-04 18:12 38.69953 39.41318 35890 ft 446 kts 271°
2026-05-04 18:12 38.70334 39.33383 35890 ft 446 kts 271°
2026-05-04 18:13 38.70698 39.25447 35890 ft 447 kts 271°
2026-05-04 18:14 38.72152 39.13624 35890 ft 450 kts 278°
2026-05-04 18:14 38.73324 39.05751 35892 ft 450 kts 278°
2026-05-04 18:15 38.75650 38.89980 35897 ft 450 kts 278°
2026-05-04 18:16 38.76829 38.82096 35897 ft 451 kts 278°
2026-05-04 18:16 38.77919 38.74929 35894 ft 451 kts 278°
2026-05-04 18:17 38.79691 38.63146 35895 ft 451 kts 278°
2026-05-04 18:18 38.81447 38.51293 35893 ft 451 kts 278°
2026-05-04 18:18 38.82609 38.43383 35894 ft 451 kts 278°
2026-05-04 18:19 38.84353 38.31514 35896 ft 452 kts 278°
2026-05-04 18:19 38.85507 38.23595 35898 ft 452 kts 278°
2026-05-04 18:20 38.86663 38.15664 35900 ft 452 kts 278°
2026-05-04 18:20 38.87812 38.07731 35902 ft 452 kts 278°
2026-05-04 18:21 38.88949 37.99795 35903 ft 452 kts 278°
2026-05-04 18:21 38.90078 37.91848 35899 ft 453 kts 278°
2026-05-04 18:22 38.91202 37.83895 35895 ft 453 kts 278°
2026-05-04 18:22 38.92329 37.75940 35891 ft 453 kts 278°
2026-05-04 18:23 38.93455 37.67975 35893 ft 453 kts 278°
2026-05-04 18:23 38.94570 37.59993 35894 ft 454 kts 278°
2026-05-04 18:24 38.95673 37.52069 35893 ft 454 kts 278°
2026-05-04 18:24 38.96778 37.44087 35894 ft 454 kts 278°
2026-05-04 18:25 38.97877 37.36098 35896 ft 454 kts 278°
2026-05-04 18:25 38.98977 37.28104 35895 ft 454 kts 278°
2026-05-04 18:26 39.00071 37.20107 35894 ft 454 kts 278°
2026-05-04 18:26 39.01153 37.12102 35895 ft 455 kts 278°
2026-05-04 18:27 39.02230 37.04092 35895 ft 455 kts 278°
2026-05-04 18:27 39.03304 36.96077 35890 ft 455 kts 278°
2026-05-04 18:28 39.04375 36.88061 35890 ft 455 kts 278°
2026-05-04 18:28 39.05446 36.80032 35887 ft 455 kts 278°
2026-05-04 18:29 39.06502 36.72000 35885 ft 455 kts 278°
2026-05-04 18:29 39.07555 36.63961 35885 ft 456 kts 278°
2026-05-04 18:30 39.09139 36.51890 35882 ft 456 kts 278°
2026-05-04 18:31 39.10180 36.43847 35881 ft 456 kts 278°
2026-05-04 18:31 39.11215 36.35787 35883 ft 456 kts 278°
2026-05-04 18:32 39.12243 36.27712 35886 ft 457 kts 278°
2026-05-04 18:32 39.13268 36.19639 35886 ft 457 kts 278°
2026-05-04 18:33 39.14285 36.11557 35887 ft 457 kts 278°
2026-05-04 18:33 39.15471 36.03513 35887 ft 458 kts 286°
2026-05-04 18:34 39.18052 35.95998 35884 ft 460 kts 296°
2026-05-04 18:34 39.20937 35.88632 35881 ft 460 kts 295°
2026-05-04 18:35 39.23811 35.81251 35871 ft 461 kts 295°
2026-05-04 18:35 39.26667 35.73852 35880 ft 461 kts 295°
2026-05-04 18:36 39.29525 35.66446 35883 ft 461 kts 295°
2026-05-04 18:36 39.32388 35.59029 35885 ft 461 kts 295°
2026-05-04 18:37 39.35241 35.51613 35885 ft 461 kts 295°
2026-05-04 18:37 39.38087 35.44186 35884 ft 461 kts 295°
2026-05-04 18:38 39.40937 35.36752 35889 ft 462 kts 295°
2026-05-04 18:38 39.43765 35.29354 35894 ft 462 kts 295°
2026-05-04 18:39 39.46604 35.21897 35897 ft 462 kts 295°
2026-05-04 18:39 39.49439 35.14426 35902 ft 462 kts 295°
2026-05-04 18:40 39.52272 35.06954 35903 ft 462 kts 295°
2026-05-04 18:40 39.55094 34.99470 35907 ft 462 kts 295°
2026-05-04 18:41 39.57914 34.91982 35909 ft 462 kts 295°
2026-05-04 18:41 39.60735 34.84492 35911 ft 462 kts 295°
2026-05-04 18:42 39.63550 34.76996 35911 ft 462 kts 295°
2026-05-04 18:42 39.66358 34.69482 35910 ft 462 kts 295°
2026-05-04 18:43 39.69171 34.61972 35909 ft 463 kts 295°
2026-05-04 18:43 39.71972 34.54446 35909 ft 463 kts 295°
2026-05-04 18:44 39.74765 34.46909 35908 ft 463 kts 295°
2026-05-04 18:44 39.77564 34.39365 35909 ft 464 kts 295°
2026-05-04 18:45 39.80363 34.31808 35911 ft 464 kts 295°
2026-05-04 18:45 39.83152 34.24234 35914 ft 464 kts 295°
2026-05-04 18:46 39.85934 34.16644 35914 ft 464 kts 295°
2026-05-04 18:46 39.88714 34.09055 35915 ft 465 kts 295°
2026-05-04 18:47 39.91491 34.01455 35917 ft 465 kts 295°
2026-05-04 18:47 39.94263 33.93845 35919 ft 465 kts 295°
2026-05-04 18:48 39.97023 33.86278 35921 ft 465 kts 295°
2026-05-04 18:48 39.99790 33.78651 35922 ft 465 kts 295°
2026-05-04 18:49 40.02550 33.71014 35923 ft 465 kts 295°
2026-05-04 18:49 40.05311 33.63375 35919 ft 465 kts 295°
2026-05-04 18:50 40.08065 33.55733 35920 ft 465 kts 295°
2026-05-04 18:50 40.10809 33.48078 35920 ft 465 kts 295°
2026-05-04 18:51 40.13544 33.40432 35920 ft 465 kts 295°
2026-05-04 18:51 40.16274 33.32770 35920 ft 465 kts 295°
2026-05-04 18:52 40.18545 33.26394 35922 ft 465 kts 295°
2026-05-04 18:52 40.21736 33.17427 35924 ft 465 kts 295°
2026-05-04 18:53 40.24387 33.09706 35927 ft 465 kts 290°
2026-05-04 18:53 40.26479 33.01693 35928 ft 465 kts 289°
2026-05-04 18:54 40.28211 32.95031 35926 ft 465 kts 289°
2026-05-04 18:54 40.30294 32.87008 35927 ft 465 kts 289°
2026-05-04 18:55 40.32375 32.78981 35928 ft 465 kts 289°
2026-05-04 18:55 40.35462 32.66941 35932 ft 464 kts 289°
2026-05-04 18:56 40.37516 32.58908 35930 ft 464 kts 289°
2026-05-04 18:56 40.39567 32.50887 35930 ft 464 kts 289°
2026-05-04 18:57 40.41608 32.42868 35925 ft 464 kts 289°
2026-05-04 18:57 40.43645 32.34826 35929 ft 464 kts 289°
2026-05-04 18:58 40.45662 32.26839 35925 ft 464 kts 289°
2026-05-04 18:58 40.47689 32.18801 35928 ft 464 kts 290°
2026-05-04 18:59 40.49948 32.10882 35926 ft 463 kts 292°
2026-05-04 18:59 40.52366 32.03041 35926 ft 463 kts 293°
2026-05-04 19:00 40.54755 31.95183 35927 ft 463 kts 292°
2026-05-04 19:00 40.57077 31.87296 35940 ft 462 kts 292°
2026-05-04 19:01 40.59308 31.79358 35935 ft 463 kts 290°
2026-05-04 19:01 40.61290 31.71301 35945 ft 463 kts 288°
2026-05-04 19:02 40.63205 31.63209 35957 ft 463 kts 289°
2026-05-04 19:02 40.65164 31.55140 35967 ft 463 kts 289°
2026-05-04 19:03 40.67157 31.47088 35979 ft 462 kts 289°
2026-05-04 19:03 40.69146 31.39033 35984 ft 462 kts 289°
2026-05-04 19:04 40.71118 31.30976 35987 ft 462 kts 289°
2026-05-04 19:04 40.73060 31.22958 35991 ft 462 kts 289°
2026-05-04 19:05 40.75010 31.14893 35832 ft 461 kts 289°
2026-05-04 19:05 40.75986 31.10852 35047 ft 465 kts 289°
2026-05-04 19:05 40.76973 31.06768 34204 ft 469 kts 289°
2026-05-04 19:06 40.77965 31.02645 33272 ft 474 kts 290°
2026-05-04 19:06 40.78965 30.98476 32419 ft 476 kts 290°
2026-05-04 19:06 40.79969 30.94284 31520 ft 479 kts 290°
2026-05-04 19:06 40.80973 30.90092 30744 ft 478 kts 290°
2026-05-04 19:07 40.81976 30.85895 29771 ft 481 kts 290°
2026-05-04 19:07 40.82983 30.81673 28773 ft 483 kts 290°
2026-05-04 19:07 40.83993 30.77435 27917 ft 482 kts 290°
2026-05-04 19:07 40.84979 30.73278 27715 ft 466 kts 290°
2026-05-04 19:08 40.85928 30.69269 27596 ft 449 kts 291°
2026-05-04 19:08 40.86679 30.65327 27384 ft 439 kts 282°
2026-05-04 19:08 40.87089 30.61366 27062 ft 430 kts 281°
2026-05-04 19:08 40.87471 30.57462 27024 ft 427 kts 281°
2026-05-04 19:09 40.87850 30.53573 27036 ft 427 kts 281°
2026-05-04 19:09 40.88300 30.49702 26771 ft 423 kts 287°
2026-05-04 19:09 40.89194 30.46096 26155 ft 416 kts 298°
2026-05-04 19:09 40.90592 30.42794 25590 ft 408 kts 309°
2026-05-04 19:10 40.92393 30.39880 25031 ft 401 kts 316°
2026-05-04 19:10 40.94228 30.37183 24503 ft 398 kts 315°
2026-05-04 19:10 40.96088 30.34422 23969 ft 395 kts 315°
2026-05-04 19:10 40.97903 30.31708 23473 ft 392 kts 315°
2026-05-04 19:11 40.99677 30.29047 22980 ft 389 kts 315°
2026-05-04 19:11 41.01486 30.26333 22495 ft 386 kts 315°
2026-05-04 19:11 41.03236 30.23713 22022 ft 383 kts 315°
2026-05-04 19:11 41.04979 30.21106 21673 ft 368 kts 315°
2026-05-04 19:12 41.06512 30.18524 21391 ft 351 kts 302°
2026-05-04 19:12 41.06900 30.12287 20170 ft 353 kts 250°
2026-05-04 19:12 41.05541 30.09620 19656 ft 349 kts 224°
2026-05-04 19:13 41.03725 30.07467 19293 ft 351 kts 222°
2026-05-04 19:13 41.01890 30.05334 18918 ft 350 kts 222°
2026-05-04 19:13 41.00061 30.03215 18541 ft 349 kts 222°
2026-05-04 19:13 40.98241 30.01106 18179 ft 347 kts 222°
2026-05-04 19:14 40.96430 29.99005 17822 ft 344 kts 222°
2026-05-04 19:14 40.94636 29.96928 17486 ft 342 kts 223°
2026-05-04 19:14 40.92849 29.94860 17151 ft 341 kts 223°
2026-05-04 19:14 40.91070 29.92801 16811 ft 339 kts 223°
2026-05-04 19:15 40.89348 29.90681 16473 ft 336 kts 230°
2026-05-04 19:15 40.88016 29.88183 16136 ft 331 kts 245°
2026-05-04 19:15 40.87171 29.85392 15750 ft 327 kts 258°
2026-05-04 19:15 40.86831 29.82441 15317 ft 324 kts 271°
2026-05-04 19:16 40.86799 29.79480 15062 ft 319 kts 272°
2026-05-04 19:16 40.86764 29.76567 15051 ft 317 kts 272°
2026-05-04 19:16 40.86725 29.73652 15051 ft 317 kts 272°
2026-05-04 19:16 40.86689 29.70736 15055 ft 318 kts 272°
2026-05-04 19:17 40.86652 29.67818 14902 ft 318 kts 272°
2026-05-04 19:17 40.86623 29.64891 14468 ft 318 kts 274°
2026-05-04 19:17 40.86860 29.62003 14082 ft 315 kts 281°
2026-05-04 19:17 40.87160 29.59181 13744 ft 314 kts 281°
2026-05-04 19:18 40.87458 29.56327 13393 ft 312 kts 281°
2026-05-04 19:18 40.87749 29.53493 13070 ft 309 kts 281°
2026-05-04 19:18 40.88125 29.50754 12952 ft 296 kts 293°
2026-05-04 19:18 40.89155 29.48511 12820 ft 280 kts 318°
2026-05-04 19:19 40.90729 29.47113 12576 ft 270 kts 342°
2026-05-04 19:19 40.92546 29.46668 12285 ft 266 kts 359°
2026-05-04 19:19 40.94393 29.46553 11963 ft 265 kts 359°
2026-05-04 19:19 40.96229 29.46440 11663 ft 264 kts 359°
2026-05-04 19:20 40.98050 29.46147 11354 ft 265 kts 346°
2026-05-04 19:20 40.99804 29.45416 11078 ft 264 kts 343°
2026-05-04 19:20 41.01530 29.44678 10999 ft 258 kts 343°
2026-05-04 19:20 41.03239 29.43946 11006 ft 259 kts 343°
2026-05-04 19:21 41.04954 29.43215 11007 ft 259 kts 344°
2026-05-04 19:21 41.06627 29.42332 11008 ft 260 kts 332°
2026-05-04 19:21 41.08158 29.41041 11008 ft 261 kts 329°
2026-05-04 19:21 41.09684 29.39733 11008 ft 261 kts 329°
2026-05-04 19:22 41.11210 29.38423 11006 ft 261 kts 329°
2026-05-04 19:22 41.12737 29.37113 11008 ft 262 kts 329°
2026-05-04 19:22 41.14197 29.35672 11006 ft 263 kts 319°
2026-05-04 19:22 41.15437 29.33879 11007 ft 264 kts 314°
2026-05-04 19:23 41.16664 29.32063 11007 ft 265 kts 315°
2026-05-04 19:23 41.17719 29.30063 11007 ft 269 kts 294°
2026-05-04 19:23 41.18019 29.27611 11008 ft 275 kts 266°
2026-05-04 19:23 41.17426 29.25176 10711 ft 285 kts 238°
2026-05-04 19:24 41.15987 29.23372 10445 ft 286 kts 215°
2026-05-04 19:24 41.14338 29.21889 10128 ft 284 kts 215°
2026-05-04 19:24 41.12698 29.20418 9783 ft 284 kts 215°
2026-05-04 19:24 41.11077 29.18956 9542 ft 281 kts 216°
2026-05-04 19:25 41.09470 29.17496 9240 ft 280 kts 216°
2026-05-04 19:25 41.07888 29.16066 8976 ft 278 kts 216°
2026-05-04 19:25 41.06296 29.14630 8698 ft 276 kts 216°
2026-05-04 19:25 41.04713 29.13199 8420 ft 275 kts 216°
2026-05-04 19:26 41.03138 29.11774 8150 ft 273 kts 216°
2026-05-04 19:26 41.01573 29.10357 7869 ft 272 kts 216°
2026-05-04 19:26 41.00012 29.08950 7589 ft 271 kts 216°
2026-05-04 19:26 40.98456 29.07548 7331 ft 270 kts 216°
2026-05-04 19:27 40.96913 29.06158 7005 ft 266 kts 216°
2026-05-04 19:27 40.95386 29.04780 6500 ft 265 kts 216°
2026-05-04 19:27 40.93874 29.03414 6077 ft 259 kts 216°
2026-05-04 19:27 40.92531 29.01958 5996 ft 244 kts 232°
2026-05-04 19:28 40.91690 29.00040 6005 ft 241 kts 255°
2026-05-04 19:28 40.91436 28.97885 6007 ft 237 kts 275°
2026-05-04 19:28 40.91614 28.95727 6007 ft 236 kts 279°
2026-05-04 19:28 40.91808 28.93567 5704 ft 238 kts 279°
2026-05-04 19:29 40.92000 28.91389 5387 ft 238 kts 279°
2026-05-04 19:29 40.92189 28.89209 5092 ft 238 kts 279°
2026-05-04 19:29 40.92377 28.87045 4792 ft 237 kts 278°
2026-05-04 19:29 40.92565 28.84882 4499 ft 236 kts 278°
2026-05-04 19:30 40.92862 28.82780 4305 ft 227 kts 294°
2026-05-04 19:30 40.93689 28.81087 4181 ft 215 kts 316°
2026-05-04 19:30 40.94724 28.79703 4081 ft 210 kts 316°
2026-05-04 19:30 40.95747 28.78329 3995 ft 209 kts 316°
2026-05-04 19:31 40.96799 28.77006 4003 ft 208 kts 327°
2026-05-04 19:31 40.98116 28.76258 3999 ft 207 kts 351°
2026-05-04 19:31 40.99556 28.76172 4008 ft 207 kts 359°
2026-05-04 19:31 41.00993 28.76147 4010 ft 205 kts 359°
2026-05-04 19:32 41.02371 28.76120 4002 ft 192 kts 359°
2026-05-04 19:32 41.03697 28.76095 4006 ft 190 kts 359°
2026-05-04 19:32 41.05017 28.76071 4012 ft 189 kts 359°
2026-05-04 19:32 41.06334 28.76046 4002 ft 189 kts 359°
2026-05-04 19:33 41.07658 28.76022 3878 ft 189 kts 360°
2026-05-04 19:33 41.08973 28.75997 3657 ft 189 kts 359°
2026-05-04 19:33 41.10285 28.75972 3417 ft 188 kts 359°
2026-05-04 19:33 41.11594 28.75947 3171 ft 188 kts 359°
2026-05-04 19:34 41.12901 28.75923 2916 ft 187 kts 360°
2026-05-04 19:34 41.14200 28.75897 2691 ft 184 kts
2026-05-04 19:34 41.15479 28.75872 2435 ft 182 kts
2026-05-04 19:34 41.16693 28.75849 2199 ft 168 kts 358°
2026-05-04 19:35 41.17823 28.75829 1993 ft 153 kts 358°
2026-05-04 19:35 41.18846 28.75810 1781 ft 143 kts 358°
2026-05-04 19:35 41.19825 28.75792 1592 ft 140 kts 358°
2026-05-04 19:35 41.20776 28.75774 1413 ft 138 kts 357°
2026-05-04 19:36 41.21746 28.75755 1230 ft 137 kts 358°
2026-05-04 19:36 41.22685 28.75737 1050 ft 137 kts 358°
2026-05-04 19:36 41.23638 28.75719 869 ft 137 kts 358°
2026-05-04 19:36 41.24592 28.75702 660 ft 138 kts 357°
2026-05-04 19:37 41.25545 28.75678 492 ft 137 kts 358°
2026-05-04 19:37 41.26509 28.75664 318 ft 137 kts 358°
2026-05-04 19:37 41.27320 28.75650 298 ft 93 kts 359°
2026-05-04 19:37 41.27786 28.75644 279 ft 38 kts 358°
2026-05-04 19:38 41.27993 28.75614 265 ft 23 kts 342°
2026-05-04 19:38 41.28084 28.75558 261 ft 10 kts 329°
2026-05-04 19:38 41.28125 28.75526 259 ft 3 kts 330°
2026-05-04 19:38 41.28139 28.75515 259 ft 2 kts 330°
2026-05-04 19:39 41.28164 28.75491 258 ft 6 kts 314°
2026-05-04 19:39 41.28174 28.75424 258 ft 9 kts 262°
2026-05-04 19:39 41.28133 28.75362 259 ft 10 kts 200°
2026-05-04 19:39 41.28089 28.75357 261 ft 10 kts 180°
2026-05-04 19:40 41.28006 28.75358 265 ft 8 kts 179°
2026-05-04 19:40 41.27955 28.75358 267 ft 7 kts 180°
2026-05-04 19:40 41.27914 28.75359 270 ft 11 kts 180°
2026-05-04 19:40 41.27821 28.75360 276 ft 9 kts 179°
2026-05-04 19:41 41.27759 28.75361 280 ft 12 kts 180°
2026-05-04 19:41 41.27674 28.75362 290 ft 11 kts 180°
2026-05-04 19:41 41.27593 28.75363 296 ft 12 kts 179°
2026-05-04 19:41 41.27509 28.75364 296 ft 12 kts 179°
2026-05-04 19:42 41.27448 28.75364 299 ft 14 kts 179°
2026-05-04 19:42 41.27349 28.75365 300 ft 15 kts 179°
2026-05-04 19:42 41.27206 28.75367 302 ft 16 kts 179°
2026-05-04 19:42 41.27109 28.75368 303 ft 11 kts 188°
2026-05-04 19:43 41.27069 28.75322 302 ft 12 kts 252°
2026-05-04 19:43 41.27017 28.75251 303 ft 11 kts 184°
2026-05-04 19:43 41.26934 28.75254 305 ft 13 kts 179°
2026-05-04 19:43 41.26838 28.75255 306 ft 15 kts 180°
2026-05-04 19:44 41.26732 28.75257 308 ft 15 kts 179°
2026-05-04 19:44 41.26628 28.75259 309 ft 16 kts 179°
2026-05-04 19:44 41.26518 28.75261 311 ft 16 kts 179°
2026-05-04 19:44 41.26405 28.75263 312 ft 15 kts 179°
2026-05-04 19:45 41.26307 28.75265 313 ft 12 kts 179°
2026-05-04 19:45 41.26245 28.75235 314 ft 10 kts 244°
2026-05-04 19:45 41.26240 28.75142 313 ft 8 kts 269°
2026-05-04 19:45 41.26240 28.75070 313 ft 9 kts 269°
2026-05-04 19:46 41.26226 28.74977 313 ft 12 kts 247°
2026-05-04 19:46 41.26203 28.74888 313 ft 6 kts 250°
2026-05-04 19:46 41.26191 28.74842 313 ft 3 kts 251°
2026-05-04 19:46 41.26189 28.74837 313 ft 0 kts 251°